| time (UTC) | temp C | wind direction | speed KPH | gust KPH | rain 1hr cm | rain 24hr cm | rain mn cm | humidity % | barometer mb |
| 20260507015453 | 25 | 202 | 6.4 | 11.3 | 0.00 | 0.00 | 0.00 | 43 | 1015.3 |
| 20260507014954 | 25 | 214 | 8.0 | 11.3 | 0.00 | 0.00 | 0.00 | 43 | 1015.2 |
| 20260507014453 | 25 | 219 | 8.0 | 11.3 | 0.00 | 0.00 | 0.00 | 42 | 1015.2 |
| 20260507013952 | 25 | 212 | 6.4 | 12.9 | 0.00 | 0.00 | 0.00 | 41 | 1015.2 |
| 20260507013452 | 25 | 229 | 8.0 | 12.9 | 0.00 | 0.00 | 0.00 | 41 | 1015.2 |
| 20260507012953 | 25 | 215 | 6.4 | 11.3 | 0.00 | 0.00 | 0.00 | 40 | 1015.2 |
| 20260507012453 | 25 | 210 | 8.0 | 11.3 | 0.00 | 0.00 | 0.00 | 41 | 1015.2 |
| 20260507011953 | 26 | 221 | 6.4 | 9.7 | 0.00 | 0.00 | 0.00 | 40 | 1015.2 |
| 20260507011453 | 25 | 213 | 6.4 | 12.9 | 0.00 | 0.00 | 0.00 | 41 | 1015.2 |
| 20260507010953 | 25 | 187 | 6.4 | 12.9 | 0.00 | 0.00 | 0.00 | 40 | 1015.2 |
| 20260507010358 | 25 | 206 | 4.8 | 12.9 | 0.00 | 0.00 | 0.00 | 41 | 1015.2 |
| 20260507005858 | 26 | 215 | 6.4 | 14.5 | 0.00 | 0.00 | 0.00 | 40 | 1015.3 |
| 20260507005400 | 26 | 185 | 9.7 | 14.5 | 0.00 | 0.00 | 0.00 | 41 | 1015.2 |
| 20260507004858 | 26 | 241 | 6.4 | 11.3 | 0.00 | 0.00 | 0.00 | 40 | 1015.2 |
| 20260507003918 | 26 | 200 | 9.7 | 16.1 | 0.00 | 0.00 | 0.00 | 40 | 1015.2 |
| 20260507003419 | 26 | 223 | 6.4 | 12.9 | 0.00 | 0.00 | 0.00 | 40 | 1015.2 |
| 20260507002917 | 25 | 214 | 6.4 | 14.5 | 0.00 | 0.00 | 0.00 | 40 | 1015.2 |
| 20260507002418 | 25 | 238 | 8.0 | 19.3 | 0.00 | 0.00 | 0.00 | 40 | 1015.2 |
| 20260507001917 | 26 | 272 | 8.0 | 19.3 | 0.00 | 0.00 | 0.00 | 40 | 1015.3 |
| 20260507001420 | 26 | 200 | 4.8 | 14.5 | 0.00 | 0.00 | 0.00 | 40 | 1015.3 |
| 20260507000918 | 26 | 214 | 9.7 | 19.3 | 0.00 | 0.00 | 0.00 | 40 | 1015.2 |
| 20260507000417 | 26 | 195 | 6.4 | 19.3 | 0.00 | 0.00 | 0.00 | 40 | 1015.2 |
| 20260506235918 | 26 | 227 | 12.9 | 17.7 | 0.00 | 0.00 | 0.00 | 40 | 1015.2 |
| 20260506235417 | 26 | 245 | 9.7 | 14.5 | 0.00 | 0.00 | 0.00 | 40 | 1015.2 |
| 20260506234917 | 26 | 209 | 9.7 | 14.5 | 0.00 | 0.00 | 0.00 | 40 | 1015.2 |
| 20260506234417 | 26 | 171 | 9.7 | 14.5 | 0.00 | 0.00 | 0.00 | 40 | 1015.2 |
| 20260506233917 | 25 | 194 | 8.0 | 16.1 | 0.00 | 0.00 | 0.00 | 41 | 1015.2 |
| 20260506233417 | 25 | 232 | 6.4 | 16.1 | 0.00 | 0.00 | 0.00 | 40 | 1015.3 |
| 20260506232917 | 25 | 184 | 11.3 | 16.1 | 0.00 | 0.00 | 0.00 | 41 | 1015.4 |
| 20260506232419 | 25 | 213 | 8.0 | 14.5 | 0.00 | 0.00 | 0.00 | 41 | 1015.4 |
| 20260506231917 | 25 | 228 | 8.0 | 19.3 | 0.00 | 0.00 | 0.00 | 41 | 1015.4 |
| 20260506231417 | 25 | 272 | 12.9 | 19.3 | 0.00 | 0.00 | 0.00 | 41 | 1015.5 |
| 20260506230919 | 25 | 241 | 14.5 | 19.3 | 0.00 | 0.00 | 0.00 | 43 | 1015.5 |
| 20260506225957 | 25 | 258 | 8.0 | 16.1 | 0.00 | 0.00 | 0.00 | 42 | 1015.6 |
| 20260506225458 | 25 | 300 | 8.0 | 12.9 | 0.00 | 0.00 | 0.00 | 41 | 1015.6 |
| 20260506224956 | 25 | 315 | 4.8 | 12.9 | 0.00 | 0.00 | 0.00 | 42 | 1015.7 |
| 20260506224400 | 25 | 232 | 3.2 | 12.9 | 0.00 | 0.00 | 0.00 | 43 | 1015.7 |
| 20260506223901 | 25 | 244 | 8.0 | 12.9 | 0.00 | 0.00 | 0.00 | 43 | 1015.8 |
| 20260506223401 | 25 | 0 | 0.0 | 17.7 | 0.00 | 0.00 | 0.00 | 43 | 1015.8 |
| 20260506222858 | 25 | 276 | 6.4 | 17.7 | 0.00 | 0.00 | 0.00 | 44 | 1016.0 |
| 20260506222319 | 25 | 259 | 8.0 | 14.5 | 0.00 | 0.00 | 0.00 | 43 | 1016.0 |
| 20260506221321 | 24 | 262 | 9.7 | 17.7 | 0.00 | 0.00 | 0.00 | 44 | 1016.1 |
| 20260506220821 | 24 | 282 | 6.4 | 16.1 | 0.00 | 0.00 | 0.00 | 45 | 1016.2 |
| 20260506220320 | 24 | 256 | 6.4 | 14.5 | 0.00 | 0.00 | 0.00 | 45 | 1016.3 |
| 20260506215819 | 25 | 295 | 3.2 | 16.1 | 0.00 | 0.00 | 0.00 | 44 | 1016.4 |
| 20260506215321 | 24 | 303 | 11.3 | 17.7 | 0.00 | 0.00 | 0.00 | 45 | 1016.4 |
| 20260506214820 | 24 | 256 | 11.3 | 17.7 | 0.00 | 0.00 | 0.00 | 46 | 1016.5 |
| 20260506214320 | 24 | 309 | 6.4 | 17.7 | 0.00 | 0.00 | 0.00 | 46 | 1016.6 |
| 20260506213820 | 24 | 319 | 6.4 | 14.5 | 0.00 | 0.00 | 0.00 | 45 | 1016.6 |
| 20260506213317 | 24 | 237 | 6.4 | 14.5 | 0.00 | 0.00 | 0.00 | 46 | 1016.7 |
| 20260506212816 | 24 | 210 | 6.4 | 11.3 | 0.00 | 0.00 | 0.00 | 46 | 1016.7 |
| 20260506212316 | 23 | 0 | 0.0 | 9.7 | 0.00 | 0.00 | 0.00 | 47 | 1016.7 |
| 20260506211817 | 23 | 207 | 3.2 | 14.5 | 0.00 | 0.00 | 0.00 | 47 | 1016.8 |
| 20260506211317 | 23 | 245 | 6.4 | 17.7 | 0.00 | 0.00 | 0.00 | 47 | 1016.9 |
| 20260506210816 | 23 | 265 | 9.7 | 17.7 | 0.00 | 0.00 | 0.00 | 47 | 1016.9 |
| 20260506210319 | 22 | 333 | 3.2 | 12.9 | 0.00 | 0.00 | 0.00 | 49 | 1016.9 |
| 20260506205816 | 22 | 277 | 6.4 | 17.7 | 0.00 | 0.00 | 0.00 | 49 | 1017.0 |
| 20260506205316 | 23 | 275 | 4.8 | 17.7 | 0.00 | 0.00 | 0.00 | 48 | 1017.0 |
| 20260506204817 | 23 | 340 | 4.8 | 14.5 | 0.00 | 0.00 | 0.00 | 48 | 1017.0 |
| 20260506204316 | 22 | 0 | 0.0 | 14.5 | 0.00 | 0.00 | 0.00 | 50 | 1017.0 |
| 20260506203817 | 22 | 266 | 6.4 | 16.1 | 0.00 | 0.00 | 0.00 | 49 | 1017.1 |
| 20260506203317 | 22 | 301 | 8.0 | 16.1 | 0.00 | 0.00 | 0.00 | 49 | 1017.2 |
| 20260506202817 | 22 | 319 | 6.4 | 14.5 | 0.00 | 0.00 | 0.00 | 49 | 1017.2 |
| 20260506202318 | 22 | 316 | 4.8 | 14.5 | 0.00 | 0.00 | 0.00 | 49 | 1017.2 |
| 20260506201436 | 22 | 320 | 9.7 | 14.5 | 0.00 | 0.00 | 0.00 | 50 | 1017.4 |
| 20260506200936 | 22 | 13 | 4.8 | 14.5 | 0.00 | 0.00 | 0.00 | 50 | 1017.5 |
| 20260506195936 | 22 | 10 | 4.8 | 14.5 | 0.00 | 0.00 | 0.00 | 50 | 1017.7 |
| 20260506195436 | 22 | 17 | 9.7 | 14.5 | 0.00 | 0.00 | 0.00 | 50 | 1017.7 |
| 20260506194937 | 22 | 53 | 4.8 | 12.9 | 0.00 | 0.00 | 0.00 | 50 | 1017.7 |
| 20260506194436 | 22 | 355 | 6.4 | 14.5 | 0.00 | 0.00 | 0.00 | 51 | 1017.8 |
| 20260506193935 | 22 | 10 | 8.0 | 14.5 | 0.00 | 0.00 | 0.00 | 51 | 1017.9 |
| 20260506193436 | 21 | 343 | 8.0 | 12.9 | 0.00 | 0.00 | 0.00 | 52 | 1017.9 |
| 20260506192939 | 21 | 189 | 1.6 | 14.5 | 0.00 | 0.00 | 0.00 | 52 | 1018.1 |
| 20260506192436 | 21 | 296 | 3.2 | 14.5 | 0.00 | 0.00 | 0.00 | 54 | 1018.2 |
| 20260506191936 | 21 | 282 | 4.8 | 8.0 | 0.00 | 0.00 | 0.00 | 54 | 1018.3 |
| 20260506191436 | 21 | 80 | 3.2 | 12.9 | 0.00 | 0.00 | 0.00 | 54 | 1018.3 |
| 20260506190935 | 21 | 157 | 4.8 | 12.9 | 0.00 | 0.00 | 0.00 | 55 | 1018.4 |
| 20260506190253 | 20 | 192 | 6.4 | 11.3 | 0.00 | 0.00 | 0.00 | 55 | 1018.6 |
| 20260506185754 | 20 | 244 | 4.8 | 12.9 | 0.00 | 0.00 | 0.00 | 56 | 1018.6 |
| 20260506185253 | 20 | 223 | 4.8 | 14.5 | 0.00 | 0.00 | 0.00 | 56 | 1018.6 |
| 20260506184753 | 20 | 230 | 4.8 | 14.5 | 0.00 | 0.00 | 0.00 | 56 | 1018.7 |
| 20260506184253 | 20 | 251 | 4.8 | 19.3 | 0.00 | 0.00 | 0.00 | 58 | 1018.8 |
| 20260506183755 | 20 | 241 | 11.3 | 19.3 | 0.00 | 0.00 | 0.00 | 60 | 1018.7 |
| 20260506183253 | 20 | 251 | 3.2 | 12.9 | 0.00 | 0.00 | 0.00 | 62 | 1018.8 |
| 20260506182253 | 19 | 211 | 9.7 | 12.9 | 0.00 | 0.00 | 0.00 | 62 | 1019.0 |
| 20260506180430 | 18 | 246 | 8.0 | 14.5 | 0.00 | 0.00 | 0.00 | 65 | 1019.2 |
| 20260506175931 | 18 | 288 | 3.2 | 14.5 | 0.00 | 0.00 | 0.00 | 64 | 1019.2 |
| 20260506175430 | 18 | 260 | 4.8 | 14.5 | 0.00 | 0.00 | 0.00 | 66 | 1019.2 |
| 20260506174930 | 18 | 223 | 8.0 | 14.5 | 0.00 | 0.00 | 0.00 | 66 | 1019.3 |
| 20260506174430 | 18 | 207 | 3.2 | 12.9 | 0.00 | 0.00 | 0.00 | 68 | 1019.3 |
| 20260506173931 | 18 | 183 | 4.8 | 14.5 | 0.00 | 0.00 | 0.00 | 68 | 1019.4 |
| 20260506173430 | 18 | 207 | 9.7 | 14.5 | 0.00 | 0.00 | 0.00 | 68 | 1019.4 |
| 20260506172930 | 18 | 211 | 4.8 | 11.3 | 0.00 | 0.00 | 0.00 | 68 | 1019.4 |
| 20260506172430 | 18 | 234 | 4.8 | 14.5 | 0.00 | 0.00 | 0.00 | 68 | 1019.4 |
| 20260506171930 | 17 | 167 | 8.0 | 14.5 | 0.00 | 0.00 | 0.00 | 70 | 1019.5 |
| 20260506171430 | 17 | 194 | 1.6 | 12.9 | 0.00 | 0.00 | 0.00 | 70 | 1019.5 |
| 20260506170932 | 17 | 200 | 3.2 | 12.9 | 0.00 | 0.00 | 0.00 | 70 | 1019.6 |
| 20260506170430 | 17 | 196 | 8.0 | 12.9 | 0.00 | 0.00 | 0.00 | 70 | 1019.6 |
| 20260506165930 | 17 | 197 | 6.4 | 12.9 | 0.00 | 0.00 | 0.00 | 71 | 1019.6 |
| 20260506165431 | 17 | 196 | 6.4 | 14.5 | 0.00 | 0.00 | 0.00 | 72 | 1019.6 |
| 20260506164930 | 17 | 201 | 9.7 | 14.5 | 0.00 | 0.00 | 0.00 | 72 | 1019.6 |
| 20260506164432 | 16 | 202 | 4.8 | 16.1 | 0.00 | 0.00 | 0.00 | 72 | 1019.6 |
| 20260506163931 | 16 | 195 | 9.7 | 16.1 | 0.00 | 0.00 | 0.00 | 73 | 1019.6 |
| 20260506163430 | 16 | 166 | 3.2 | 11.3 | 0.00 | 0.00 | 0.00 | 72 | 1019.5 |
| 20260506162931 | 16 | 191 | 3.2 | 8.0 | 0.00 | 0.00 | 0.00 | 73 | 1019.6 |
| 20260506162430 | 16 | 191 | 3.2 | 19.3 | 0.00 | 0.00 | 0.00 | 73 | 1019.6 |
| 20260506161930 | 16 | 185 | 6.4 | 19.3 | 0.00 | 0.00 | 0.00 | 72 | 1019.6 |
| 20260506161430 | 16 | 203 | 9.7 | 17.7 | 0.00 | 0.00 | 0.00 | 72 | 1019.6 |
| 20260506160916 | 16 | 149 | 4.8 | 12.9 | 0.00 | 0.00 | 0.00 | 72 | 1019.6 |
| 20260506155915 | 16 | 160 | 6.4 | 12.9 | 0.00 | 0.03 | 0.00 | 73 | 1019.7 |
| 20260506155418 | 16 | 150 | 6.4 | 12.9 | 0.00 | 0.03 | 0.00 | 74 | 1019.7 |
| 20260506154917 | 16 | 185 | 6.4 | 12.9 | 0.00 | 0.05 | 0.00 | 74 | 1019.7 |
| 20260506154415 | 15 | 162 | 4.8 | 12.9 | 0.00 | 0.08 | 0.00 | 74 | 1019.8 |
| 20260506153915 | 15 | 169 | 6.4 | 12.9 | 0.00 | 0.08 | 0.00 | 75 | 1019.8 |
| 20260506153417 | 15 | 140 | 4.8 | 14.5 | 0.00 | 0.08 | 0.00 | 75 | 1019.8 |
| 20260506152916 | 15 | 162 | 1.6 | 14.5 | 0.00 | 0.08 | 0.00 | 75 | 1019.8 |
| 20260506152415 | 15 | 150 | 4.8 | 12.9 | 0.00 | 0.08 | 0.00 | 75 | 1019.8 |
| 20260506151915 | 15 | 152 | 4.8 | 9.7 | 0.00 | 0.10 | 0.00 | 76 | 1019.8 |
| 20260506151417 | 15 | 184 | 6.4 | 9.7 | 0.00 | 0.10 | 0.00 | 77 | 1019.7 |
| 20260506150917 | 15 | 185 | 4.8 | 9.7 | 0.00 | 0.10 | 0.00 | 76 | 1019.7 |
| 20260506150417 | 14 | 178 | 3.2 | 8.0 | 0.00 | 0.10 | 0.00 | 76 | 1019.7 |
| 20260506145917 | 14 | 163 | 3.2 | 8.0 | 0.00 | 0.10 | 0.00 | 76 | 1019.6 |
| 20260506145029 | 14 | 0 | 0.0 | 6.4 | 0.00 | 0.10 | 0.00 | 76 | 1019.7 |
| 20260506144528 | 14 | 152 | 1.6 | 6.4 | 0.00 | 0.10 | 0.00 | 76 | 1019.6 |
| 20260506144030 | 14 | 0 | 0.0 | 4.8 | 0.00 | 0.10 | 0.00 | 77 | 1019.6 |
| 20260506143530 | 14 | 0 | 0.0 | 3.2 | 0.00 | 0.10 | 0.00 | 78 | 1019.5 |
| 20260506143028 | 14 | 0 | 0.0 | 3.2 | 0.00 | 0.10 | 0.00 | 79 | 1019.5 |
| 20260506142530 | 13 | 0 | 0.0 | 0.0 | 0.00 | 0.10 | 0.00 | 80 | 1019.5 |
| 20260506142028 | 13 | 0 | 0.0 | 1.6 | 0.00 | 0.10 | 0.00 | 81 | 1019.5 |
| 20260506141528 | 13 | 0 | 0.0 | 1.6 | 0.00 | 0.10 | 0.00 | 83 | 1019.4 |
| 20260506141028 | 13 | 0 | 0.0 | 3.2 | 0.00 | 0.10 | 0.00 | 83 | 1019.4 |
| 20260506140528 | 13 | 0 | 0.0 | 4.8 | 0.00 | 0.10 | 0.00 | 83 | 1019.3 |
| 20260506140030 | 12 | 0 | 0.0 | 4.8 | 0.00 | 0.10 | 0.00 | 85 | 1019.3 |
| 20260506135528 | 12 | 0 | 0.0 | 4.8 | 0.00 | 0.10 | 0.00 | 85 | 1019.2 |
| 20260506135029 | 12 | 0 | 0.0 | 4.8 | 0.00 | 0.10 | 0.00 | 87 | 1019.1 |
| 20260506134528 | 11 | 0 | 0.0 | 6.4 | 0.00 | 0.10 | 0.00 | 88 | 1019.0 |
| 20260506134028 | 11 | 125 | 1.6 | 6.4 | 0.00 | 0.10 | 0.00 | 89 | 1018.9 |
| 20260506133528 | 11 | 0 | 0.0 | 6.4 | 0.00 | 0.10 | 0.00 | 89 | 1018.9 |
| 20260506133029 | 11 | 141 | 1.6 | 6.4 | 0.00 | 0.10 | 0.00 | 90 | 1018.8 |
| 20260506132528 | 10 | 131 | 1.6 | 4.8 | 0.00 | 0.10 | 0.00 | 91 | 1018.8 |
| 20260506132029 | 10 | 126 | 1.6 | 8.0 | 0.00 | 0.10 | 0.00 | 92 | 1018.7 |
| 20260506131528 | 10 | 133 | 1.6 | 8.0 | 0.00 | 0.10 | 0.00 | 92 | 1018.8 |
| 20260506131028 | 10 | 0 | 0.0 | 3.2 | 0.00 | 0.10 | 0.00 | 91 | 1018.8 |
| 20260506130528 | 10 | 0 | 0.0 | 4.8 | 0.00 | 0.10 | 0.00 | 91 | 1018.7 |
| 20260506130028 | 10 | 0 | 0.0 | 6.4 | 0.00 | 0.10 | 0.00 | 91 | 1018.6 |
| 20260506125528 | 10 | 100 | 1.6 | 6.4 | 0.00 | 0.10 | 0.00 | 91 | 1018.6 |
| 20260506125028 | 10 | 96 | 4.8 | 6.4 | 0.00 | 0.10 | 0.00 | 92 | 1018.5 |
| 20260506124528 | 10 | 103 | 3.2 | 6.4 | 0.00 | 0.10 | 0.00 | 91 | 1018.5 |
| 20260506124030 | 10 | 105 | 3.2 | 6.4 | 0.00 | 0.10 | 0.00 | 90 | 1018.4 |
| 20260506123529 | 10 | 0 | 0.0 | 6.4 | 0.00 | 0.10 | 0.00 | 91 | 1018.5 |
| 20260506123028 | 10 | 138 | 1.6 | 8.0 | 0.00 | 0.10 | 0.00 | 91 | 1018.4 |
| 20260506122528 | 10 | 144 | 3.2 | 8.0 | 0.00 | 0.10 | 0.00 | 91 | 1018.4 |
| 20260506122030 | 11 | 153 | 4.8 | 9.7 | 0.00 | 0.10 | 0.00 | 91 | 1018.4 |
| 20260506121528 | 11 | 147 | 4.8 | 11.3 | 0.00 | 0.10 | 0.00 | 91 | 1018.2 |
| 20260506121029 | 11 | 136 | 4.8 | 11.3 | 0.00 | 0.10 | 0.00 | 91 | 1018.2 |
| 20260506120528 | 11 | 132 | 4.8 | 8.0 | 0.00 | 0.10 | 0.00 | 92 | 1018.1 |
| 20260506120030 | 11 | 142 | 3.2 | 6.4 | 0.00 | 0.10 | 0.00 | 91 | 1018.2 |
| 20260506115121 | 11 | 133 | 3.2 | 8.0 | 0.00 | 0.10 | 0.00 | 91 | 1018.2 |
| 20260506114619 | 11 | 122 | 1.6 | 9.7 | 0.00 | 0.10 | 0.00 | 91 | 1018.2 |
| 20260506114120 | 10 | 138 | 3.2 | 9.7 | 0.00 | 0.10 | 0.00 | 91 | 1018.1 |
| 20260506113621 | 10 | 195 | 1.6 | 4.8 | 0.00 | 0.10 | 0.00 | 87 | 1018.1 |
| 20260506113120 | 11 | 0 | 0.0 | 4.8 | 0.00 | 0.10 | 0.00 | 87 | 1018.1 |
| 20260506112622 | 11 | 0 | 0.0 | 4.8 | 0.00 | 0.10 | 0.00 | 89 | 1018.0 |
| 20260506112121 | 11 | 0 | 0.0 | 3.2 | 0.00 | 0.10 | 0.00 | 88 | 1018.0 |
| 20260506111619 | 11 | 0 | 0.0 | 0.0 | 0.00 | 0.10 | 0.00 | 87 | 1018.0 |
| 20260506111119 | 12 | 0 | 0.0 | 3.2 | 0.00 | 0.10 | 0.00 | 86 | 1018.0 |
| 20260506110621 | 12 | 0 | 0.0 | 6.4 | 0.00 | 0.10 | 0.00 | 88 | 1017.9 |
| 20260506110121 | 12 | 261 | 1.6 | 6.4 | 0.00 | 0.10 | 0.00 | 88 | 1017.8 |
| 20260506105620 | 12 | 0 | 0.0 | 3.2 | 0.00 | 0.10 | 0.00 | 89 | 1017.8 |
| 20260506105119 | 12 | 0 | 0.0 | 3.2 | 0.00 | 0.10 | 0.00 | 89 | 1017.7 |
| 20260506104620 | 12 | 0 | 0.0 | 1.6 | 0.00 | 0.10 | 0.00 | 89 | 1017.8 |
| 20260506104119 | 12 | 0 | 0.0 | 0.0 | 0.00 | 0.10 | 0.00 | 89 | 1017.7 |
| 20260506103139 | 12 | 0 | 0.0 | 0.0 | 0.00 | 0.10 | 0.00 | 89 | 1017.7 |
| 20260506102639 | 12 | 0 | 0.0 | 0.0 | 0.00 | 0.10 | 0.00 | 89 | 1017.7 |
| 20260506102138 | 12 | 0 | 0.0 | 0.0 | 0.00 | 0.10 | 0.00 | 89 | 1017.6 |
| 20260506101642 | 12 | 0 | 0.0 | 0.0 | 0.00 | 0.10 | 0.00 | 89 | 1017.6 |
| 20260506101143 | 12 | 0 | 0.0 | 0.0 | 0.00 | 0.10 | 0.00 | 89 | 1017.5 |
| 20260506100644 | 11 | 0 | 0.0 | 0.0 | 0.00 | 0.10 | 0.00 | 90 | 1017.5 |
| 20260506100142 | 11 | 0 | 0.0 | 1.6 | 0.00 | 0.10 | 0.00 | 89 | 1017.4 |
| 20260506095643 | 11 | 0 | 0.0 | 3.2 | 0.00 | 0.10 | 0.00 | 89 | 1017.3 |
| 20260506095141 | 11 | 0 | 0.0 | 3.2 | 0.00 | 0.10 | 0.00 | 90 | 1017.3 |
| 20260506094639 | 11 | 0 | 0.0 | 4.8 | 0.00 | 0.10 | 0.00 | 90 | 1017.4 |
| 20260506094139 | 11 | 256 | 1.6 | 4.8 | 0.00 | 0.10 | 0.00 | 89 | 1017.4 |
| 20260506093638 | 11 | 256 | 1.6 | 3.2 | 0.00 | 0.10 | 0.00 | 89 | 1017.3 |
| 20260506093138 | 11 | 0 | 0.0 | 3.2 | 0.00 | 0.10 | 0.00 | 88 | 1017.3 |
| 20260506092640 | 12 | 0 | 0.0 | 4.8 | 0.00 | 0.10 | 0.00 | 88 | 1017.2 |
| 20260506092139 | 12 | 0 | 0.0 | 4.8 | 0.00 | 0.10 | 0.00 | 87 | 1017.2 |
| 20260506091140 | 12 | 0 | 0.0 | 6.4 | 0.00 | 0.10 | 0.00 | 84 | 1017.2 |
| 20260506090639 | 13 | 248 | 1.6 | 8.0 | 0.00 | 0.10 | 0.00 | 82 | 1017.2 |
| 20260506090138 | 13 | 66 | 4.8 | 8.0 | 0.00 | 0.10 | 0.00 | 81 | 1017.2 |
| 20260506085641 | 13 | 69 | 3.2 | 8.0 | 0.00 | 0.10 | 0.00 | 80 | 1017.2 |
| 20260506085140 | 13 | 74 | 3.2 | 6.4 | 0.00 | 0.10 | 0.00 | 80 | 1017.2 |
| 20260506084638 | 13 | 77 | 4.8 | 8.0 | 0.00 | 0.10 | 0.00 | 81 | 1017.2 |
| 20260506084138 | 13 | 74 | 4.8 | 8.0 | 0.00 | 0.10 | 0.00 | 81 | 1017.2 |
| 20260506083639 | 13 | 77 | 4.8 | 8.0 | 0.00 | 0.10 | 0.00 | 81 | 1017.2 |
| 20260506083138 | 13 | 75 | 4.8 | 11.3 | 0.00 | 0.10 | 0.00 | 81 | 1017.1 |
| 20260506082638 | 13 | 73 | 6.4 | 12.9 | 0.00 | 0.10 | 0.00 | 81 | 1017.1 |
| 20260506082139 | 13 | 68 | 6.4 | 12.9 | 0.00 | 0.10 | 0.00 | 82 | 1017.1 |
| 20260506081638 | 13 | 69 | 4.8 | 11.3 | 0.00 | 0.10 | 0.00 | 82 | 1017.1 |
| 20260506081138 | 13 | 67 | 6.4 | 11.3 | 0.00 | 0.10 | 0.00 | 82 | 1017.2 |
| 20260506080638 | 13 | 66 | 6.4 | 9.7 | 0.00 | 0.10 | 0.00 | 82 | 1017.1 |
| 20260506073156 | 12 | 72 | 6.4 | 8.0 | 0.00 | 0.10 | 0.00 | 85 | 1016.9 |
| 20260506072655 | 12 | 72 | 4.8 | 8.0 | 0.00 | 0.10 | 0.00 | 85 | 1016.8 |
| 20260506072155 | 12 | 72 | 4.8 | 9.7 | 0.00 | 0.10 | 0.00 | 86 | 1016.8 |
| 20260506071658 | 12 | 69 | 6.4 | 11.3 | 0.00 | 0.10 | 0.00 | 85 | 1016.8 |
| 20260506071156 | 12 | 68 | 6.4 | 11.3 | 0.00 | 0.10 | 0.00 | 85 | 1016.8 |
| 20260506070654 | 12 | 69 | 6.4 | 12.9 | 0.00 | 0.10 | 0.00 | 85 | 1016.6 |
| 20260506070156 | 12 | 70 | 8.0 | 12.9 | 0.00 | 0.10 | 0.00 | 86 | 1016.7 |
| 20260506061029 | 12 | 71 | 4.8 | 8.0 | 0.00 | 0.10 | 0.10 | 87 | 1016.2 |
| 20260506060527 | 12 | 69 | 6.4 | 8.0 | 0.00 | 0.10 | 0.10 | 87 | 1016.2 |
| 20260506041743 | 13 | 70 | 4.8 | 9.7 | 0.00 | 0.10 | 0.10 | 84 | 1015.3 |
| 20260506041243 | 13 | 66 | 6.4 | 9.7 | 0.00 | 0.10 | 0.10 | 84 | 1015.3 |
| 20260506040743 | 13 | 69 | 6.4 | 8.0 | 0.00 | 0.10 | 0.10 | 84 | 1015.2 |
| 20260506040244 | 13 | 71 | 4.8 | 9.7 | 0.00 | 0.10 | 0.10 | 85 | 1015.2 |
| 20260506035743 | 13 | 65 | 6.4 | 9.7 | 0.00 | 0.10 | 0.10 | 85 | 1015.0 |
| 20260506035243 | 13 | 64 | 4.8 | 8.0 | 0.00 | 0.10 | 0.10 | 86 | 1015.1 |
| 20260506034743 | 13 | 66 | 4.8 | 8.0 | 0.00 | 0.10 | 0.10 | 86 | 1015.0 |
| 20260506034244 | 13 | 64 | 4.8 | 8.0 | 0.00 | 0.10 | 0.10 | 85 | 1015.0 |
| 20260506033743 | 13 | 66 | 3.2 | 6.4 | 0.00 | 0.10 | 0.10 | 86 | 1014.8 |
| 20260506033245 | 13 | 67 | 4.8 | 9.7 | 0.00 | 0.10 | 0.10 | 85 | 1014.9 |
| 20260506032743 | 13 | 63 | 6.4 | 9.7 | 0.00 | 0.10 | 0.10 | 85 | 1014.8 |
| 20260506032244 | 13 | 62 | 8.0 | 9.7 | 0.00 | 0.10 | 0.10 | 84 | 1014.8 |
| 20260506031743 | 13 | 66 | 4.8 | 6.4 | 0.00 | 0.10 | 0.10 | 83 | 1014.7 |
| 20260506031244 | 14 | 75 | 3.2 | 4.8 | 0.00 | 0.10 | 0.10 | 82 | 1014.6 |
| 20260506030312 | 15 | 0 | 0.0 | 0.0 | 0.00 | 0.10 | 0.10 | 79 | 1014.4 |
| 20260506025811 | 15 | 0 | 0.0 | 0.0 | 0.00 | 0.10 | 0.10 | 78 | 1014.4 |
| 20260506025311 | 15 | 0 | 0.0 | 0.0 | 0.00 | 0.10 | 0.10 | 78 | 1014.3 |
| 20260506024810 | 15 | 0 | 0.0 | 3.2 | 0.00 | 0.10 | 0.10 | 78 | 1014.3 |
| 20260506024310 | 15 | 0 | 0.0 | 3.2 | 0.00 | 0.10 | 0.10 | 77 | 1014.2 |
| 20260506023811 | 15 | 0 | 0.0 | 4.8 | 0.00 | 0.10 | 0.10 | 76 | 1014.2 |
| 20260506023310 | 16 | 0 | 0.0 | 6.4 | 0.00 | 0.10 | 0.10 | 76 | 1014.2 |
| 20260506022812 | 16 | 85 | 3.2 | 6.4 | 0.00 | 0.10 | 0.10 | 75 | 1014.2 |
| 20260506021811 | 16 | 92 | 4.8 | 6.4 | 0.00 | 0.10 | 0.10 | 75 | 1014.1 |
| 20260506021311 | 16 | 97 | 1.6 | 6.4 | 0.00 | 0.10 | 0.10 | 75 | 1014.1 |
| 20260506020811 | 16 | 105 | 1.6 | 6.4 | 0.00 | 0.10 | 0.10 | 74 | 1014.0 |
| 20260506020310 | 16 | 100 | 3.2 | 6.4 | 0.00 | 0.10 | 0.10 | 74 | 1013.9 |